Cordova, AK

3:42 PM AKDT on May 20, 2018 (GMT -0800)
Cordova-Smith

Weather History for PACV - April, 2013

Change the Weather History Date:

Thursday, April 25, 2013

  Actual Average Record
Temperature  
Mean Temperature 39 °F -  
Max Temperature 46 °F 47 °F 71 °F (2005)
Min Temperature 32 °F 32 °F 19 °F (2002)
Degree Days  
Heating Degree Days 26    
Moisture  
Dew Point 18 °F    
Average Humidity 49    
Maximum Humidity 100    
Minimum Humidity 22    
Precipitation  
Precipitation 0.00 in - - ()
Sea Level Pressure  
Sea Level Pressure 29.56 in    
Wind  
Wind Speed 5 mph (North)    
Max Wind Speed 14 mph    
Max Gust Speed 25 mph    
Visibility 8 miles    
Events Fog    
Averages and records for this station are not official NWS values.
T = Trace of Precipitation, MM = Missing Value Source: NWS Daily Summary

Daily Weather History Graph

Daily Weather History Graph

Search for Another Location

Airport or City:

Astronomy

Apr. 25, 2013 Rise Set
Actual Time 5:52 AM AKDT 9:28 PM AKDT
Civil Twilight 5:01 AM AKDT 10:20 PM AKDT
Nautical Twilight 3:45 AM AKDT 11:37 PM AKDT
Astronomical Twilight 2:12 AM AKDT 1:07 AM AKDT
Moon 10:04 PM AKDT (4/25) 5:42 AM AKDT (4/25)
Length of Visible Light 17h 18m
Length of Day
15h 35m
Full, 100% of the Moon is Illuminated
Apr 25
Full
May 2
Last Quarter
May 9
New
May 17
First Quarter
May 24
Full

Hourly Weather History & Observations

Time (AKDT) Temp. Windchill Dew Point Humidity Pressure Visibility Wind Dir Wind Speed Gust Speed Precip Events Conditions
12:00 AM 35.6 °F - 33.8 °F 93% 29.64 in 2.0 mi Calm Calm - N/A   Overcast
12:07 AM 35.6 °F - 33.8 °F 93% 29.64 in 0.8 mi Calm Calm - N/A   Overcast
12:16 AM 33.8 °F 30.8 °F 33.8 °F 100% 29.63 in 0.5 mi NW 3.5 mph - N/A Fog Fog
12:22 AM 35.6 °F 30.7 °F 33.8 °F 93% 29.63 in 1.0 mi WNW 5.8 mph - N/A   Overcast
12:37 AM 35.6 °F 29.9 °F 33.8 °F 93% 29.61 in 3.0 mi NW 6.9 mph - N/A   Overcast
12:53 AM 35.1 °F - 34.0 °F 96% 29.61 in 10.0 mi Calm Calm - N/A   Overcast
1:53 AM 34.0 °F - 33.1 °F 96% 29.59 in 10.0 mi Calm Calm - N/A   Overcast
2:53 AM 32.0 °F 28.7 °F 30.9 °F 96% 29.57 in 10.0 mi NW 3.5 mph - N/A   Mostly Cloudy
3:53 AM 36.0 °F 32.1 °F 28.0 °F 73% 29.54 in 10.0 mi NE 4.6 mph - N/A   Overcast
4:53 AM 39.0 °F - 23.0 °F 53% 29.53 in 10.0 mi Calm Calm - N/A   Mostly Cloudy
5:53 AM 41.0 °F 34.3 °F 16.0 °F 36% 29.53 in 10.0 mi North 11.5 mph 19.6 mph N/A   Overcast
6:53 AM 41.0 °F 34.7 °F 15.1 °F 35% 29.53 in 10.0 mi North 10.4 mph 24.2 mph N/A   Scattered Clouds
7:53 AM 41.0 °F 33.5 °F 12.0 °F 31% 29.52 in 10.0 mi North 13.8 mph 25.3 mph N/A   Mostly Cloudy
8:53 AM 42.1 °F 37.1 °F 12.0 °F 29% 29.51 in 10.0 mi North 8.1 mph 17.3 mph N/A   Mostly Cloudy
9:53 AM 43.0 °F 37.2 °F 10.0 °F 26% 29.51 in 10.0 mi North 10.4 mph 23.0 mph N/A   Mostly Cloudy
10:53 AM 45.0 °F 41.8 °F 10.9 °F 25% 29.51 in 10.0 mi Variable 5.8 mph 17.3 mph N/A   Scattered Clouds
11:53 AM 45.0 °F 38.5 °F 9.0 °F 23% 29.52 in 10.0 mi North 13.8 mph 21.9 mph N/A   Scattered Clouds
12:53 PM 46.0 °F 41.0 °F 10.9 °F 24% 29.51 in 10.0 mi NNE 10.4 mph 19.6 mph N/A   Scattered Clouds
1:53 PM 46.0 °F 41.4 °F 10.0 °F 23% 29.52 in 10.0 mi NNE 9.2 mph 21.9 mph N/A   Scattered Clouds
2:53 PM 46.9 °F - 10.9 °F 23% 29.53 in 10.0 mi North 10.4 mph 17.3 mph N/A   Partly Cloudy
3:53 PM 46.0 °F 42.5 °F 9.0 °F 22% 29.53 in 10.0 mi Variable 6.9 mph 18.4 mph N/A   Scattered Clouds
4:53 PM 46.0 °F 42.5 °F 12.0 °F 25% 29.53 in 10.0 mi Variable 6.9 mph - N/A   Scattered Clouds
5:53 PM 46.0 °F 41.4 °F 10.0 °F 23% 29.54 in 10.0 mi NE 9.2 mph - N/A   Scattered Clouds
6:53 PM 45.0 °F 40.1 °F 10.0 °F 24% 29.55 in 10.0 mi North 9.2 mph - N/A   Scattered Clouds
7:53 PM 43.0 °F 38.2 °F 9.0 °F 25% 29.56 in 10.0 mi North 8.1 mph 19.6 mph N/A   Scattered Clouds
8:53 PM 41.0 °F 38.0 °F 8.1 °F 26% 29.56 in 10.0 mi North 4.6 mph - N/A   Partly Cloudy
9:53 PM 39.0 °F 34.0 °F 8.1 °F 28% 29.57 in 10.0 mi North 6.9 mph - N/A   Partly Cloudy
11:53 PM 37.0 °F 34.5 °F 7.0 °F 29% 29.59 in 10.0 mi North 3.5 mph - N/A   Partly Cloudy